Tracking 32571 objects as of 17-Dec-2025
HD Live streaming from Space Station
objects crossing your sky now

STARLINK-5619

Track STARLINK-5619 now!
10-day predictions
STARLINK-5619 is classified as:


NORAD ID: 55755
Int'l Code: 2023-028Q
Perigee: 504.5 km
Apogee: 510.0 km
Inclination: 70.0 °
Period: 94.6 minutes
Semi major axis: 6878 km
RCS: Unknown
Launch date: March 3, 2023
Source: United States (US)
Launch site: AIR FORCE WESTERN TEST RANGE (AFWTR)
Your satellite tracking list
Your tracking list is empty




NASA's NSSDC Master Catalog

Two Line Element Set (TLE):
1 55755U 23028Q   25350.91670139  .01379164  00000-0  55543-1 0  9997
2 55755  69.9999  91.9952 0004007 267.0266 353.6771 15.21911044  5516
Source of the keplerian elements: AFSPC